Comstar 203

operational
NORAD ID: 10975 Int'l Des: 1978-068 Owner: COM Country: US
HEOCIRCULAR

Über Comstar 203

Beschreibung wird geladen...

Live-Position

3D-Globus wird geladen...

Nächste Überflüge

Höhenverlauf

Altitude vs Time

uPlot chart will show altitude changes over time

Zweizeiliger Elementsatz

1 10975U 78068A 26062.41040826 -.00000089 00000-0 00000-0 0 9990
2 10975 9.7064 315.8462 0024329 320.9901 223.4799 0.99200049 45146
Epoch: 3. März 2026 • Age: 41 hours

Aktueller Status

Höhe 36000.5 km
Geschwindigkeit 3.07 km/s
Subsatellitenpunkt -8.95°S, 173.47°W
Startdatum 29. Juni 1978
Alter 47.6 years
Typ other

Technische Details

Klassifizierung Payload
Masse 748.00 kg
Trockenmasse 590.00 kg
Gesamtmasse 1490.00 kg
Länge 3.50 m
Durchmesser 2.40 m
Spannweite 6.30 m
Form Cyl + Ant
Hersteller HSES
Bus-Typ HS-351
Phasenstatus In Orbit
Besitzer/Staat COM/US

Große Konstellationen

Loading constellations...